KD5UMO-1 Weather Reports


Display with metric or nautical units.
time (UTC)temp
F
wind
direction
speed
MPH
gust
MPH
rain 1hr
in
rain 24hr
in
rain mn
in
humidity
%
barometer
mb
20260509022213 73 197 2.0 4.0 0.00 0.62 0.62 78 1009.0
20260509021709 72 213 1.0 4.0 0.00 0.62 0.62 78 1008.9
20260509021207 72 229 0.0 2.0 0.00 0.62 0.62 79 1008.9
20260509020705 73 212 0.0 2.0 0.00 0.62 0.62 78 1009.0
20260509020201 73 32 0.0 2.0 0.00 0.62 0.62 78 1009.2
20260509015700 73 173 1.0 2.0 0.00 0.62 0.62 78 1009.1
20260509015158 73 245 1.0 3.0 0.00 0.62 0.62 78 1009.0
20260509014654 73 138 2.0 4.0 0.00 0.62 0.62 77 1008.9
20260509014150 73 206 0.0 2.0 0.00 0.62 0.62 77 1008.9
20260509013647 73 148 2.0 3.0 0.00 0.62 0.62 76 1008.9
20260509013143 73 180 0.0 2.0 0.00 0.62 0.62 76 1008.9
20260509012640 73 304 1.0 2.0 0.00 0.62 0.62 76 1008.8
20260509012137 73 222 1.0 2.0 0.00 0.62 0.62 75 1008.8
20260509011635 73 242 0.0 2.0 0.00 0.62 0.62 75 1008.8
20260509011132 73 166 0.0 4.0 0.00 0.62 0.62 75 1009.0
20260509010629 73 237 1.0 2.0 0.00 0.62 0.62 74 1008.7
20260509010126 74 297 0.0 2.0 0.00 0.62 0.62 74 1008.9
20260509005624 74 261 2.0 2.0 0.00 0.62 0.62 74 1008.7
20260509005119 74 28 1.0 3.0 0.00 0.62 0.62 73 1008.8
20260509004615 74 346 0.0 2.0 0.00 0.62 0.62 73 1008.6
20260509004113 74 195 0.0 2.0 0.00 0.62 0.62 73 1008.4
20260509003611 75 105 1.0 2.0 0.00 0.62 0.62 72 1008.4
20260509003108 75 246 3.0 5.0 0.00 0.62 0.62 72 1008.3
20260509002606 75 138 0.0 2.0 0.00 0.62 0.62 71 1008.3
20260509002103 75 284 1.0 2.0 0.00 0.62 0.62 72 1008.3
20260509001600 75 231 1.0 4.0 0.00 0.62 0.62 72 1008.4
20260509001056 75 283 1.0 7.0 0.00 0.62 0.62 71 1008.2
20260509000554 75 192 0.0 5.0 0.00 0.62 0.62 71 1008.2
20260509000050 76 200 1.0 5.0 0.00 0.62 0.62 71 1008.3
20260508235548 76 213 2.0 5.0 0.00 0.62 0.62 70 1008.4
20260508235044 76 70 0.0 2.0 0.00 0.62 0.62 69 1008.5
20260508234542 76 149 2.0 3.0 0.00 0.62 0.62 68 1008.7
20260508234038 77 165 1.0 4.0 0.00 0.62 0.62 66 1008.6
20260508233538 78 216 0.0 3.0 0.00 0.62 0.62 66 1008.6
20260508233035 77 259 2.0 4.0 0.00 0.62 0.62 67 1008.7
20260508232531 78 194 2.0 3.0 0.00 0.62 0.62 66 1008.7
20260508232028 77 111 2.0 4.0 0.00 0.62 0.62 68 1008.8
20260508231526 77 116 0.0 6.0 0.00 0.62 0.62 68 1008.7
20260508231023 77 240 5.0 6.0 0.00 0.62 0.62 67 1008.9
20260508230520 77 146 2.0 4.0 0.00 0.62 0.62 67 1008.9
20260508230017 77 211 4.0 5.0 0.00 0.62 0.62 67 1009.0
20260508225514 77 220 1.0 6.0 0.00 0.62 0.62 67 1008.8
20260508225010 78 247 0.0 2.0 0.00 0.62 0.62 67 1008.9
20260508224508 77 205 3.0 4.0 0.00 0.62 0.62 67 1008.7
20260508224005 77 226 7.0 9.0 0.00 0.62 0.62 67 1008.8
20260508223503 77 173 2.0 4.0 0.00 0.62 0.62 67 1008.7
20260508223000 78 249 2.0 4.0 0.00 0.62 0.62 66 1008.9
20260508222457 78 182 2.0 4.0 0.00 0.62 0.62 66 1008.9
20260508221953 79 10 3.0 4.0 0.00 0.62 0.62 65 1008.9
20260508221450 80 161 3.0 5.0 0.00 0.62 0.62 63 1008.9
20260508220946 80 215 1.0 4.0 0.00 0.62 0.62 63 1008.8
20260508220443 80 337 2.0 3.0 0.00 0.62 0.62 64 1008.6
20260508215939 78 222 2.0 12.0 0.00 0.62 0.62 65 1008.8
20260508215436 78 176 2.0 9.0 0.00 0.62 0.62 64 1008.8
20260508214932 79 191 2.0 5.0 0.00 0.62 0.62 63 1008.8
20260508214431 80 325 2.0 4.0 0.00 0.62 0.62 62 1008.7
20260508213926 80 0 2.0 3.0 0.00 0.62 0.62 62 1008.8
20260508213424 80 87 2.0 5.0 0.00 0.62 0.62 62 1008.7
20260508212919 79 190 4.0 5.0 0.00 0.62 0.62 62 1008.6
20260508212416 79 224 2.0 4.0 0.00 0.62 0.62 62 1008.9
20260508211912 79 111 2.0 6.0 0.00 0.62 0.62 62 1008.7
20260508211408 79 213 1.0 7.0 0.00 0.62 0.62 62 1009.0
20260508210905 79 237 2.0 4.0 0.00 0.62 0.62 63 1009.3
20260508210401 79 241 1.0 4.0 0.00 0.62 0.62 63 1009.3
20260508205858 79 215 0.0 4.0 0.00 0.62 0.62 64 1009.6
20260508205355 77 151 2.0 6.0 0.00 0.62 0.62 65 1009.8
20260508204851 76 144 3.0 6.0 0.00 0.62 0.62 66 1010.1
20260508204348 76 128 1.0 4.0 0.00 0.62 0.62 66 1010.3
20260508203844 76 166 3.0 4.0 0.00 0.62 0.62 66 1010.7
20260508203340 76 181 3.0 8.0 0.00 0.62 0.62 67 1010.5
20260508202836 76 219 2.0 7.0 0.00 0.62 0.62 66 1010.4
20260508202334 76 221 4.0 8.0 0.00 0.62 0.62 65 1010.6
20260508201831 76 232 3.0 5.0 0.00 0.62 0.62 66 1010.5
20260508201328 76 188 2.0 8.0 0.00 0.62 0.62 65 1010.7
20260508200824 78 173 2.0 5.0 0.00 0.62 0.62 63 1010.6
20260508200321 78 231 5.0 6.0 0.00 0.62 0.62 62 1010.7
20260508195811 78 248 2.0 8.0 0.00 0.62 0.62 63 1010.6
20260508195308 78 188 5.0 9.0 0.00 0.62 0.62 63 1010.7
20260508194804 78 219 6.0 8.0 0.00 0.62 0.62 63 1010.8
20260508194301 79 217 6.0 7.0 0.00 0.62 0.62 61 1010.7
20260508193758 79 115 0.0 4.0 0.00 0.62 0.62 61 1010.7
20260508193255 79 246 3.0 4.0 0.00 0.62 0.62 61 1010.8
20260508192751 79 186 1.0 6.0 0.00 0.62 0.62 60 1010.8
20260508192248 80 88 4.0 4.0 0.00 0.62 0.62 56 1010.8
20260508191745 80 91 0.0 3.0 0.00 0.62 0.62 58 1010.9
20260508191242 81 230 3.0 3.0 0.00 0.62 0.62 56 1010.8
20260508190740 81 189 0.0 4.0 0.00 0.62 0.62 54 1011.0
20260508190235 80 254 3.0 6.0 0.00 0.62 0.62 57 1011.1
20260508185732 80 198 0.0 4.0 0.00 0.62 0.62 56 1011.1
20260508185230 79 159 2.0 6.0 0.00 0.62 0.62 56 1011.0
20260508184727 79 206 1.0 3.0 0.00 0.62 0.62 57 1010.8
20260508184224 79 275 2.0 4.0 0.00 0.62 0.62 58 1011.1
20260508183721 78 145 3.0 6.0 0.00 0.62 0.62 58 1011.1
20260508183217 79 209 0.0 4.0 0.00 0.62 0.62 58 1011.3
20260508182713 78 253 0.0 4.0 0.00 0.62 0.62 60 1011.5
20260508182210 77 253 2.0 5.0 0.00 0.62 0.62 57 1011.6
20260508181706 78 160 1.0 4.0 0.00 0.62 0.62 58 1011.7
20260508181204 78 148 5.0 7.0 0.00 0.62 0.62 60 1011.7
20260508180700 78 311 2.0 4.0 0.00 0.62 0.62 60 1011.8
20260508180157 77 56 2.0 4.0 0.00 0.62 0.62 60 1011.8
20260508175653 77 130 0.0 3.0 0.00 0.62 0.62 60 1012.2
20260508175149 77 87 2.0 3.0 0.00 0.62 0.62 60 1012.0
20260508174648 77 106 2.0 4.0 0.00 0.62 0.62 59 1012.3
20260508174144 76 15 1.0 6.0 0.00 0.62 0.62 61 1011.9
20260508173641 76 234 3.0 4.0 0.00 0.62 0.62 60 1012.0
20260508173137 76 140 2.0 3.0 0.00 0.62 0.62 62 1012.4
20260508172634 76 231 2.0 3.0 0.00 0.62 0.62 61 1012.2
20260508172131 75 46 3.0 6.0 0.00 0.62 0.62 61 1012.7
20260508171627 75 280 2.0 5.0 0.00 0.62 0.62 63 1012.7
20260508171124 75 38 2.0 5.0 0.00 0.62 0.62 62 1012.9
20260508170621 75 237 2.0 3.0 0.00 0.62 0.62 61 1013.1
20260508170119 74 318 0.0 5.0 0.00 0.62 0.62 63 1013.2
20260508165615 74 245 2.0 10.0 0.00 0.62 0.62 63 1013.3
20260508165112 73 210 3.0 9.0 0.00 0.62 0.62 64 1013.5
20260508164608 74 74 0.0 3.0 0.00 0.62 0.62 62 1013.4
20260508164105 72 132 2.0 7.0 0.00 0.62 0.62 63 1013.6
20260508163603 73 299 0.0 5.0 0.00 0.62 0.62 65 1013.7
20260508163059 73 198 0.0 3.0 0.00 0.62 0.62 64 1013.8
20260508162556 72 182 2.0 4.0 0.00 0.62 0.62 65 1013.9
20260508162054 72 212 0.0 2.0 0.00 0.62 0.62 67 1014.1
20260508161550 71 160 0.0 4.0 0.00 0.62 0.62 67 1014.0
20260508161048 71 157 0.0 3.0 0.00 0.62 0.62 68 1014.2
20260508160546 70 246 1.0 2.0 0.00 0.62 0.62 70 1014.1
20260508160043 70 312 1.0 4.0 0.00 0.62 0.62 69 1014.0
20260508155540 70 274 2.0 4.0 0.00 0.62 0.62 70 1014.1
20260508155037 70 228 2.0 3.0 0.00 0.62 0.62 70 1014.0
20260508154534 69 181 0.0 2.0 0.00 0.62 0.62 71 1014.3
20260508154031 68 232 6.0 6.0 0.00 0.62 0.62 69 1014.6
20260508153527 68 248 3.0 5.0 0.00 0.62 0.62 72 1014.4
20260508153024 69 216 2.0 3.0 0.00 0.62 0.62 73 1014.5
20260508152521 68 160 2.0 3.0 0.00 0.62 0.62 72 1014.4
20260508152016 68 324 0.0 3.0 0.00 0.62 0.62 73 1014.4
20260508151514 68 224 0.0 1.0 0.00 0.62 0.62 75 1014.5
20260508151010 68 217 0.0 2.0 0.00 0.62 0.62 74 1014.4
20260508150508 68 229 0.0 2.0 0.00 0.62 0.62 75 1014.6
20260508150003 68 99 2.0 6.0 0.00 0.62 0.62 75 1014.5
20260508145500 68 212 0.0 2.0 0.00 0.62 0.62 76 1014.6
20260508144956 67 162 2.0 2.0 0.00 0.62 0.62 77 1014.6
20260508144454 67 239 1.0 3.0 0.00 0.62 0.62 79 1014.7
20260508143951 66 179 0.0 2.0 0.00 0.62 0.62 81 1014.6
20260508143449 65 341 0.0 2.0 0.00 0.62 0.62 83 1014.5
20260508142944 65 111 3.0 4.0 0.00 0.62 0.62 82 1014.7
20260508142442 65 102 2.0 4.0 0.00 0.62 0.62 83 1014.7
20260508141938 65 10 2.0 3.0 0.00 0.62 0.62 85 1014.7
20260508141435 65 110 2.0 3.0 0.00 0.62 0.62 84 1014.8
20260508140933 65 114 2.0 2.0 0.00 0.62 0.62 85 1014.8
20260508140430 64 230 0.0 2.0 0.00 0.62 0.62 86 1015.0
20260508135925 64 216 1.0 2.0 0.00 0.62 0.62 85 1015.0
20260508135422 65 184 0.0 3.0 0.00 0.62 0.62 85 1014.6
20260508134918 64 89 0.0 5.0 0.00 0.62 0.62 87 1014.7
20260508134415 64 199 0.0 1.0 0.00 0.62 0.62 89 1014.7
20260508133912 62 37 0.0 4.0 0.00 0.62 0.62 92 1014.6
20260508133410 61 145 0.0 4.0 0.00 0.62 0.62 94 1014.6
20260508132906 61 124 0.0 4.0 0.00 0.62 0.62 96 1014.8
20260508132404 61 306 0.0 1.0 0.00 0.62 0.62 96 1014.8
20260508131900 61 225 1.0 2.0 0.00 0.62 0.62 97 1014.9
20260508131356 61 244 2.0 2.0 0.00 0.62 0.62 97 1014.7
20260508130853 60 292 0.0 2.0 0.09 0.62 0.62 97 1014.6
20260508130350 61 269 0.0 2.0 0.12 0.61 0.61 97 1015.0
20260508125846 60 53 2.0 4.0 0.07 0.60 0.60 97 1014.7
20260508125342 60 303 2.0 2.0 0.09 0.59 0.59 97 1015.3
20260508124840 60 248 0.0 1.0 0.09 0.59 0.59 97 1015.1
20260508124337 60 60 0.0 1.0 0.02 0.58 0.58 97 1014.9
20260508123835 60 41 2.0 2.0 0.00 0.57 0.57 97 1015.1
20260508123333 60 266 0.0 2.0 0.00 0.57 0.57 97 1015.2
20260508122830 60 322 0.0 2.0 0.00 0.57 0.57 97 1015.2
20260508122326 60 189 0.0 2.0 0.00 0.57 0.57 97 1015.0
20260508121824 60 47 0.0 2.0 0.00 0.57 0.57 98 1015.2
20260508121322 60 353 2.0 2.0 0.00 0.57 0.57 98 1015.1
20260508120819 60 82 0.0 2.0 0.00 0.57 0.57 98 1015.0
20260508120317 60 321 0.0 2.0 0.02 0.57 0.57 98 1014.9
20260508115814 60 358 2.0 3.0 0.00 0.57 0.57 98 1014.7
20260508115312 60 144 0.0 2.0 0.00 0.57 0.57 98 1014.9
20260508114808 61 154 0.0 1.0 0.00 0.57 0.57 98 1015.1
20260508114305 61 212 0.0 2.0 0.00 0.57 0.57 98 1014.8
20260508113801 60 193 1.0 3.0 0.00 0.57 0.57 98 1014.8
20260508113300 60 188 0.0 2.0 0.00 0.57 0.57 98 1014.7
20260508112756 60 180 1.0 2.0 0.00 0.57 0.57 98 1014.8
20260508112253 60 237 0.0 2.0 0.40 0.57 0.57 97 1014.9
20260508111749 60 224 0.0 3.0 0.57 0.57 0.57 97 1014.8
20260508111247 60 13 2.0 2.0 0.28 0.50 0.50 97 1014.6
20260508110744 60 269 0.0 0.0 0.24 0.47 0.47 97 1014.6
20260508110242 60 7 2.0 2.0 0.17 0.45 0.45 97 1014.9
20260508105741 60 146 0.0 2.0 0.05 0.42 0.42 97 1015.3
20260508105238 60 338 0.0 2.0 0.00 0.42 0.42 97 1015.4
20260508104735 60 347 2.0 2.0 0.00 0.42 0.42 97 1015.4
20260508104232 60 42 2.0 2.0 0.00 0.42 0.42 97 1014.7
20260508103730 60 89 0.0 2.0 0.00 0.42 0.42 97 1015.2
20260508103226 60 324 1.0 5.0 0.05 0.42 0.42 97 1015.3
20260508102724 60 330 2.0 4.0 0.38 0.42 0.42 97 1014.5
20260508102222 60 29 2.0 3.0 0.52 0.41 0.41 97 1014.1
20260508101719 60 298 0.0 3.0 0.24 0.35 0.35 97 1014.8
20260508101216 61 255 2.0 2.0 0.05 0.32 0.32 97 1014.3
20260508100714 60 269 0.0 2.0 0.00 0.31 0.31 97 1013.8
20260508100212 60 349 0.0 1.0 0.00 0.31 0.31 97 1013.7
20260508095707 60 139 0.0 0.0 0.00 0.31 0.31 97 1014.0
20260508095205 60 315 0.0 0.0 0.00 0.31 0.31 97 1013.8
20260508094701 61 147 0.0 0.0 0.00 0.31 0.31 97 1013.9
20260508094159 61 218 0.0 0.0 0.00 0.31 0.31 96 1013.9
20260508093656 60 50 0.0 1.0 0.00 0.31 0.31 96 1014.2
20260508093154 60 293 0.0 0.0 0.00 0.31 0.31 96 1014.1
20260508092650 60 217 0.0 0.0 0.00 0.31 0.31 96 1014.2
20260508092149 60 304 0.0 1.0 0.00 0.31 0.31 96 1014.3
20260508091646 60 330 0.0 2.0 0.00 0.31 0.31 96 1014.0
20260508091143 60 225 0.0 0.0 0.00 0.31 0.31 96 1014.1
20260508090641 60 217 0.0 1.0 0.02 0.31 0.31 95 1014.5
20260508090138 60 315 1.0 1.0 0.02 0.31 0.31 95 1014.3
20260508085634 60 315 0.0 0.0 0.00 0.30 0.30 95 1014.3
20260508085131 60 235 0.0 1.0 0.00 0.30 0.30 94 1014.8
20260508084627 60 162 1.0 2.0 0.00 0.30 0.30 94 1014.8
20260508084125 60 291 0.0 2.0 0.00 0.30 0.30 94 1015.1
20260508083622 60 278 1.0 2.0 0.02 0.30 0.30 93 1014.7
20260508083119 59 127 4.0 4.0 0.07 0.30 0.30 93 1013.9
20260508082615 59 71 2.0 5.0 0.05 0.30 0.30 94 1014.2
20260508082112 59 95 1.0 3.0 0.00 0.29 0.29 93 1014.5
20260508081609 59 225 3.0 4.0 0.05 0.29 0.29 92 1015.3
20260508081106 59 224 0.0 1.0 0.28 0.29 0.29 90 1015.0
20260508080603 59 50 0.0 2.0 1.39 0.28 0.28 88 1014.9
20260508080101 60 283 0.0 2.0 1.35 0.22 0.22 87 1015.5
20260508075557 62 228 0.0 2.0 0.05 0.01 0.01 82 1016.2
20260508075054 62 149 0.0 3.0 0.00 0.00 0.00 81 1016.4
20260508074552 62 249 0.0 2.0 0.00 0.00 0.00 80 1015.8
20260508074049 62 235 3.0 3.0 0.00 0.00 0.00 79 1015.8
20260508073546 62 298 0.0 0.0 0.00 0.00 0.00 79 1015.5
20260508073044 62 210 0.0 0.0 0.00 0.00 0.00 79 1015.4
20260508072539 62 180 0.0 2.0 0.00 0.00 0.00 79 1015.4
20260508072037 62 135 0.0 1.0 0.00 0.00 0.00 80 1015.3
20260508071534 62 112 2.0 2.0 0.00 0.00 0.00 81 1015.3
20260508071032 61 358 1.0 1.0 0.00 0.00 0.00 81 1015.5
20260508070530 61 65 1.0 1.0 0.00 0.00 0.00 81 1015.5
20260508070028 61 66 0.0 2.0 0.00 0.00 0.00 81 1015.4
20260508065525 61 39 0.0 2.0 0.00 0.00 0.00 81 1015.4
20260508065023 61 69 1.0 2.0 0.00 0.00 0.00 80 1015.6
20260508064520 62 35 1.0 2.0 0.00 0.00 0.00 79 1015.7
20260508064018 62 48 1.0 1.0 0.00 0.00 0.00 79 1015.9
20260508063515 62 346 0.0 1.0 0.00 0.00 0.00 79 1016.0
20260508063013 62 328 0.0 1.0 0.00 0.00 0.00 79 1016.1
20260508062510 62 37 0.0 1.0 0.00 0.00 0.00 79 1016.0
20260508062007 62 73 0.0 0.0 0.00 0.00 0.00 79 1016.0
20260508061505 62 130 0.0 0.0 0.00 0.00 0.00 78 1016.0
20260508061001 62 50 0.0 0.0 0.00 0.00 0.00 79 1015.9
20260508060458 62 102 0.0 1.0 0.00 0.00 0.00 78 1015.8
20260508055954 62 101 2.0 2.0 0.00 0.00 0.00 78 1015.8
20260508055451 62 44 0.0 1.0 0.00 0.00 0.00 78 1015.9
20260508054948 62 66 0.0 0.0 0.00 0.00 0.00 78 1015.9
20260508054445 62 230 0.0 1.0 0.00 0.00 0.00 79 1015.8
20260508053941 62 40 0.0 1.0 0.00 0.00 0.00 79 1015.8
20260508053438 62 89 0.0 1.0 0.00 0.00 0.00 78 1015.9
20260508052937 62 66 0.0 1.0 0.00 0.00 0.00 78 1016.0
20260508052434 62 55 0.0 0.0 0.00 0.00 0.00 77 1016.1
20260508051930 62 326 0.0 0.0 0.00 0.00 0.00 77 1016.2
20260508051426 62 50 0.0 0.0 0.00 0.00 0.00 77 1016.0
20260508050922 63 217 0.0 0.0 0.00 0.00 0.00 76 1016.1
20260508050419 62 50 0.0 0.0 0.00 0.00 0.00 77 1016.0
20260508045915 63 37 0.0 0.0 0.00 0.00 0.00 76 1016.0
20260508045407 63 37 0.0 0.0 0.00 0.00 0.00 76 1015.8
20260508044904 63 37 0.0 0.0 0.00 0.00 0.00 76 1016.0
20260508044401 63 304 0.0 0.0 0.00 0.00 0.00 76 1016.1
20260508043856 63 329 0.0 0.0 0.00 0.00 0.00 75 1015.7
20260508043354 63 37 0.0 0.0 0.00 0.00 0.00 75 1015.9
20260508042850 63 50 0.0 0.0 0.00 0.00 0.00 75 1015.8
20260508042348 63 336 0.0 0.0 0.00 0.00 0.00 75 1015.7
20260508041845 64 37 0.0 0.0 0.00 0.00 0.00 74 1015.9
20260508041341 64 246 0.0 0.0 0.00 0.00 0.00 74 1016.0
20260508040838 64 50 0.0 1.0 0.00 0.00 0.00 74 1015.9
20260508040336 64 55 0.0 0.0 0.00 0.00 0.00 73 1015.9
20260508035833 64 355 1.0 1.0 0.00 0.00 0.00 73 1016.0
20260508035330 64 32 0.0 0.0 0.00 0.00 0.00 71 1015.8
20260508034826 64 55 0.0 2.0 0.00 0.00 0.00 70 1015.9
20260508034324 64 63 0.0 1.0 0.00 0.00 0.00 70 1015.9
20260508033820 64 83 2.0 2.0 0.00 0.00 0.00 71 1015.8
20260508033319 64 13 0.0 0.0 0.00 0.00 0.00 71 1015.8
20260508032816 64 113 0.0 0.0 0.00 0.00 0.00 71 1015.8
20260508032313 64 113 0.0 0.0 0.00 0.00 0.00 70 1015.6
20260508031809 64 209 0.0 0.0 0.00 0.00 0.00 71 1015.8
20260508031306 64 141 0.0 0.0 0.00 0.00 0.00 70 1015.6
20260508030802 65 89 0.0 0.0 0.00 0.00 0.00 70 1015.8
20260508030300 65 43 1.0 3.0 0.00 0.00 0.00 69 1015.7
20260508025756 65 50 0.0 1.0 0.00 0.00 0.00 69 1015.6
20260508025254 65 26 2.0 2.0 0.00 0.00 0.00 69 1015.5
20260508024750 65 72 1.0 3.0 0.00 0.00 0.00 69 1015.6
20260508024247 65 127 1.0 3.0 0.00 0.00 0.00 68 1015.6
20260508023744 65 37 0.0 2.0 0.00 0.00 0.00 68 1015.6
20260508023241 65 70 1.0 2.0 0.00 0.00 0.00 67 1015.5
20260508022737 66 56 2.0 3.0 0.00 0.00 0.00 67 1015.3